TimeMST,TemperatureF,Dew PointF,Humidity,Sea Level PressureIn,VisibilityMPH,Wind Direction,Wind SpeedMPH,Gust SpeedMPH,PrecipitationIn,Events,Conditions,WindDirDegrees,DateUTC
12:53 AM,55.9,27.0,33,29.72,10.0,Calm,Calm,-,N/A,,Clear,0,2013-03-21 07:53:00
1:53 AM,54.0,28.0,37,29.71,10.0,SSE,6.9,-,N/A,,Partly Cloudy,150,2013-03-21 08:53:00
2:53 AM,54.0,27.0,35,29.67,10.0,SSW,5.8,-,N/A,,Partly Cloudy,210,2013-03-21 09:53:00
3:53 AM,54.0,28.0,37,29.67,10.0,Variable,3.5,-,N/A,,Clear,0,2013-03-21 10:53:00
4:53 AM,51.1,28.0,41,29.68,10.0,Calm,Calm,-,N/A,,Clear,0,2013-03-21 11:53:00
5:53 AM,48.0,28.0,46,29.69,10.0,SSE,3.5,-,N/A,,Clear,160,2013-03-21 12:53:00
6:53 AM,48.0,28.9,48,29.71,10.0,Calm,Calm,-,N/A,,Clear,0,2013-03-21 13:53:00
7:53 AM,55.9,28.9,36,29.70,10.0,Calm,Calm,-,N/A,,Clear,0,2013-03-21 14:53:00
8:53 AM,59.0,28.0,31,29.70,10.0,North,5.8,-,N/A,,Clear,350,2013-03-21 15:53:00
9:53 AM,62.1,26.1,25,29.70,10.0,NW,6.9,-,N/A,,Clear,320,2013-03-21 16:53:00
10:53 AM,64.9,18.0,16,29.69,10.0,West,15.0,23.0,N/A,,Clear,280,2013-03-21 17:53:00
11:53 AM,66.0,19.0,17,29.70,10.0,West,9.2,17.3,N/A,,Clear,280,2013-03-21 18:53:00
12:53 PM,69.1,17.1,14,29.66,10.0,WNW,11.5,23.0,N/A,,Clear,290,2013-03-21 19:53:00
1:53 PM,69.1,14.0,12,29.65,10.0,North,12.7,20.7,N/A,,Clear,350,2013-03-21 20:53:00
2:53 PM,68.0,14.0,12,29.64,10.0,NNW,12.7,18.4,N/A,,Clear,330,2013-03-21 21:53:00
3:53 PM,68.0,12.9,12,29.63,10.0,North,6.9,-,N/A,,Clear,10,2013-03-21 22:53:00
4:53 PM,66.9,10.9,11,29.64,10.0,NW,11.5,-,N/A,,Clear,310,2013-03-21 23:53:00
5:53 PM,64.0,10.0,12,29.66,10.0,NW,11.5,18.4,N/A,,Clear,320,2013-03-22 00:53:00
6:53 PM,61.0,10.0,13,29.69,10.0,NW,8.1,-,N/A,,Clear,320,2013-03-22 01:53:00
7:53 PM,57.0,9.0,15,29.71,10.0,WNW,4.6,-,N/A,,Clear,300,2013-03-22 02:53:00
8:53 PM,55.0,10.0,17,29.73,10.0,Calm,Calm,-,N/A,,Clear,0,2013-03-22 03:53:00
9:53 PM,51.8,12.2,21,29.85,10.0,Calm,Calm,-,N/A,,Clear,0,2013-03-22 04:53:00
10:53 PM,48.9,12.9,24,29.74,10.0,Calm,Calm,-,N/A,,Clear,0,2013-03-22 05:53:00
11:53 PM,46.9,12.9,25,29.72,10.0,SE,3.5,-,N/A,,Clear,140,2013-03-22 06:53:00